Find NSS 6

NORAD ID: 27603 Int'l Des: 2002-057 Owner: NSS Country: NL operational
HEOCIRCULAR

实时位置

正在加载3D地球...

关于 NSS 6

正在加载描述...

即将过境

Passes for default location (London). Set your location on the main map for personalized predictions.

高度历史

Loading altitude history...

两行轨道根数

1 27603U 02057A 26106.89259875 -.00000228 00000-0 00000-0 0 9993
2 27603 5.2213 75.1379 0008933 235.5566 338.6676 0.99125118 85312
Epoch: Apr 16, 2026 • Age: 7 hours

当前状态

高度 36105.6 km
速度 3.06 km/s
星下点 -3.54°S, 122.01°E
发射日期 Dec 17, 2002
运行时间 23.3 years
类型 other

技术详情

分类 Payload
质量 4575.00 kg
干质量 2200.00 kg
总质量 4575.00 kg
长度 7.30 m
直径 3.60 m
跨度 26.00 m
形状 Box + 2 Pan
制造商 LMCSS
平台类型 A2100AX
阶段状态 In Orbit
所有者/国家 NSS/NL

Most Searched